Year,Month,Day,Hour,Minute,Value (Times are PST for temperature in C)
2011,10,17,00,00,4.20
2011,10,17,00,01,4.20
2011,10,17,00,02,4.20
2011,10,17,00,03,4.20
2011,10,17,00,04,4.20
2011,10,17,00,05,4.10
2011,10,17,00,06,4.10
2011,10,17,00,07,4.10
2011,10,17,00,08,4.10
2011,10,17,00,09,4.10
2011,10,17,00,10,4.10
2011,10,17,00,11,4.00
2011,10,17,00,12,4.00
2011,10,17,00,13,4.00
2011,10,17,00,14,3.90
2011,10,17,00,15,3.90
2011,10,17,00,16,3.90
2011,10,17,00,17,3.90
2011,10,17,00,18,3.80
2011,10,17,00,19,3.80
2011,10,17,00,20,3.80
2011,10,17,00,21,3.80
2011,10,17,00,22,3.80
2011,10,17,00,23,3.70
2011,10,17,00,24,3.70
2011,10,17,00,25,3.70
2011,10,17,00,26,3.70
2011,10,17,00,27,3.70
2011,10,17,00,28,3.70
2011,10,17,00,29,3.70
2011,10,17,00,30,3.60
2011,10,17,00,31,3.60
2011,10,17,00,32,3.60
2011,10,17,00,33,3.60
2011,10,17,00,34,3.60
2011,10,17,00,35,3.60
2011,10,17,00,36,3.60
2011,10,17,00,37,3.60
2011,10,17,00,38,3.70
2011,10,17,00,39,3.60
2011,10,17,00,40,3.60
2011,10,17,00,41,3.60
2011,10,17,00,42,3.60
2011,10,17,00,43,3.50
2011,10,17,00,44,3.50
2011,10,17,00,45,3.50
2011,10,17,00,46,3.50
2011,10,17,00,47,3.50
2011,10,17,00,48,3.40
2011,10,17,00,49,3.40
2011,10,17,00,50,3.40
2011,10,17,00,51,3.40
2011,10,17,00,52,3.40
2011,10,17,00,53,3.40
2011,10,17,00,54,3.40
2011,10,17,00,55,3.40
2011,10,17,00,56,3.40
2011,10,17,00,57,3.40
2011,10,17,00,58,3.40
2011,10,17,00,59,3.40
2011,10,17,01,00,3.40
2011,10,17,01,01,3.40
2011,10,17,01,02,3.40
2011,10,17,01,03,3.40
2011,10,17,01,04,3.40
2011,10,17,01,05,3.30
2011,10,17,01,06,3.30
2011,10,17,01,07,3.30
2011,10,17,01,08,3.30
2011,10,17,01,09,3.20
2011,10,17,01,10,3.20
2011,10,17,01,11,3.20
2011,10,17,01,12,3.20
2011,10,17,01,13,3.20
2011,10,17,01,14,3.20
2011,10,17,01,15,3.20
2011,10,17,01,16,3.20
2011,10,17,01,17,3.30
2011,10,17,01,18,3.30
2011,10,17,01,19,3.30
2011,10,17,01,20,3.40
2011,10,17,01,21,3.40
2011,10,17,01,22,3.40
2011,10,17,01,23,3.40
2011,10,17,01,24,3.40
2011,10,17,01,25,3.40
2011,10,17,01,26,3.40
2011,10,17,01,27,3.40
2011,10,17,01,28,3.40
2011,10,17,01,29,3.40
2011,10,17,01,30,3.40
2011,10,17,01,31,3.40
2011,10,17,01,32,3.30
2011,10,17,01,33,3.30
2011,10,17,01,34,3.30
2011,10,17,01,35,3.30
2011,10,17,01,36,3.30
2011,10,17,01,37,3.30
2011,10,17,01,38,3.30
2011,10,17,01,39,3.30
2011,10,17,01,40,3.20
2011,10,17,01,41,3.20
2011,10,17,01,42,3.20
2011,10,17,01,43,3.20
2011,10,17,01,44,3.20
2011,10,17,01,45,3.20
2011,10,17,01,46,3.20
2011,10,17,01,47,3.20
2011,10,17,01,48,3.10
2011,10,17,01,49,3.10
2011,10,17,01,50,3.10
2011,10,17,01,51,3.10
2011,10,17,01,52,3.10
2011,10,17,01,53,3.10
2011,10,17,01,54,3.10
2011,10,17,01,55,3.00
2011,10,17,01,56,3.00
2011,10,17,01,57,3.00
2011,10,17,01,58,3.00
2011,10,17,01,59,2.90
2011,10,17,02,00,2.90
2011,10,17,02,01,2.90
2011,10,17,02,02,2.80
2011,10,17,02,03,2.80
2011,10,17,02,04,2.80
2011,10,17,02,05,2.80
2011,10,17,02,06,2.80
2011,10,17,02,07,2.80
2011,10,17,02,08,2.80
2011,10,17,02,09,2.80
2011,10,17,02,10,2.80
2011,10,17,02,11,2.90
2011,10,17,02,12,2.90
2011,10,17,02,13,2.90
2011,10,17,02,14,3.00
2011,10,17,02,15,3.00
2011,10,17,02,16,3.10
2011,10,17,02,17,3.10
2011,10,17,02,18,3.10
2011,10,17,02,19,3.20
2011,10,17,02,20,3.20
2011,10,17,02,21,3.30
2011,10,17,02,22,3.30
2011,10,17,02,23,3.40
2011,10,17,02,24,3.40
2011,10,17,02,25,3.50
2011,10,17,02,26,3.50
2011,10,17,02,27,3.60
2011,10,17,02,28,3.60
2011,10,17,02,29,3.60
2011,10,17,02,30,3.60
2011,10,17,02,31,3.70
2011,10,17,02,32,3.70
2011,10,17,02,33,3.70
2011,10,17,02,34,3.80
2011,10,17,02,35,3.80
2011,10,17,02,36,3.80
2011,10,17,02,37,3.80
2011,10,17,02,38,3.80
2011,10,17,02,39,3.80
2011,10,17,02,40,3.80
2011,10,17,02,41,3.80
2011,10,17,02,42,3.90
2011,10,17,02,43,4.00
2011,10,17,02,44,4.10
2011,10,17,02,45,4.20
2011,10,17,02,46,4.20
2011,10,17,02,47,4.20
2011,10,17,02,48,4.30
2011,10,17,02,49,4.20
2011,10,17,02,50,4.20
2011,10,17,02,51,4.10
2011,10,17,02,52,4.10
2011,10,17,02,53,4.10
2011,10,17,02,54,4.00
2011,10,17,02,55,4.00
2011,10,17,02,56,4.00
2011,10,17,02,57,4.00
2011,10,17,02,58,4.00
2011,10,17,02,59,4.00
2011,10,17,03,00,4.00
2011,10,17,03,01,4.10
2011,10,17,03,02,4.10
2011,10,17,03,03,4.10
2011,10,17,03,04,4.10
2011,10,17,03,05,4.10
2011,10,17,03,06,4.10
2011,10,17,03,07,4.20
2011,10,17,03,08,4.20
2011,10,17,03,09,4.20
2011,10,17,03,10,4.30
2011,10,17,03,11,4.30
2011,10,17,03,12,4.40
2011,10,17,03,13,4.50
2011,10,17,03,14,4.60
2011,10,17,03,15,4.60
2011,10,17,03,16,4.50
2011,10,17,03,17,4.50
2011,10,17,03,18,4.50
2011,10,17,03,19,4.60
2011,10,17,03,20,4.60
2011,10,17,03,21,4.60
2011,10,17,03,22,4.60
2011,10,17,03,23,4.60
2011,10,17,03,24,4.60
2011,10,17,03,25,4.60
2011,10,17,03,26,4.60
2011,10,17,03,27,4.60
2011,10,17,03,28,4.60
2011,10,17,03,29,4.60
2011,10,17,03,30,4.60
2011,10,17,03,31,4.60
2011,10,17,03,32,4.60
2011,10,17,03,33,4.70
2011,10,17,03,34,4.70
2011,10,17,03,35,4.70
2011,10,17,03,36,4.80
2011,10,17,03,37,4.80
2011,10,17,03,38,4.90
2011,10,17,03,39,4.90
2011,10,17,03,40,5.00
2011,10,17,03,41,5.00
2011,10,17,03,42,5.10
2011,10,17,03,43,5.10
2011,10,17,03,44,5.10
2011,10,17,03,45,5.20
2011,10,17,03,46,5.20
2011,10,17,03,47,5.20
2011,10,17,03,48,5.20
2011,10,17,03,49,5.20
2011,10,17,03,50,5.20
2011,10,17,03,51,5.20
2011,10,17,03,52,5.20
2011,10,17,03,53,5.20
2011,10,17,03,54,5.10
2011,10,17,03,55,5.10
2011,10,17,03,56,5.10
2011,10,17,03,57,5.00
2011,10,17,03,58,5.00
2011,10,17,03,59,4.90
2011,10,17,04,00,4.90
2011,10,17,04,01,4.90
2011,10,17,04,02,4.90
2011,10,17,04,03,4.90
2011,10,17,04,04,4.90
2011,10,17,04,05,4.90
2011,10,17,04,06,4.90
2011,10,17,04,07,4.90
2011,10,17,04,08,4.90
2011,10,17,04,09,4.90
2011,10,17,04,10,4.90
2011,10,17,04,11,4.90
2011,10,17,04,12,4.90
2011,10,17,04,13,4.90
2011,10,17,04,14,4.90
2011,10,17,04,15,4.90
2011,10,17,04,16,5.00
2011,10,17,04,17,5.00
2011,10,17,04,18,5.10
2011,10,17,04,19,5.10
2011,10,17,04,20,5.10
2011,10,17,04,21,5.10
2011,10,17,04,22,5.10
2011,10,17,04,23,5.10
2011,10,17,04,24,5.10
2011,10,17,04,25,5.10
2011,10,17,04,26,5.10
2011,10,17,04,27,5.10
2011,10,17,04,28,5.10
2011,10,17,04,29,5.10
2011,10,17,04,30,5.10
2011,10,17,04,31,5.10
2011,10,17,04,32,5.10
2011,10,17,04,33,5.00
2011,10,17,04,34,5.00
2011,10,17,04,35,5.00
2011,10,17,04,36,5.00
2011,10,17,04,37,5.00
2011,10,17,04,38,5.10
2011,10,17,04,39,5.10
2011,10,17,04,40,5.10
2011,10,17,04,41,5.10
2011,10,17,04,42,5.10
2011,10,17,04,43,5.10
2011,10,17,04,44,5.20
2011,10,17,04,45,5.20
2011,10,17,04,46,5.20
2011,10,17,04,47,5.20
2011,10,17,04,48,5.30
2011,10,17,04,49,5.30
2011,10,17,04,50,5.40
2011,10,17,04,51,5.40
2011,10,17,04,52,5.40
2011,10,17,04,53,5.50
2011,10,17,04,54,5.50
2011,10,17,04,55,5.50
2011,10,17,04,56,5.60
2011,10,17,04,57,5.70
2011,10,17,04,58,5.70
2011,10,17,04,59,5.80
2011,10,17,05,00,5.80
2011,10,17,05,01,5.80
2011,10,17,05,02,5.80
2011,10,17,05,03,5.80
2011,10,17,05,04,5.80
2011,10,17,05,05,5.80
2011,10,17,05,06,5.70
2011,10,17,05,07,5.70
2011,10,17,05,08,5.70
2011,10,17,05,09,5.70
2011,10,17,05,10,5.60
2011,10,17,05,11,5.60
2011,10,17,05,12,5.60
2011,10,17,05,13,5.60
2011,10,17,05,14,5.60
2011,10,17,05,15,5.50
2011,10,17,05,16,5.50
2011,10,17,05,17,5.50
2011,10,17,05,18,5.50
2011,10,17,05,19,5.50
2011,10,17,05,20,5.50
2011,10,17,05,21,5.50
2011,10,17,05,22,5.50
2011,10,17,05,23,5.50
2011,10,17,05,24,5.50
2011,10,17,05,25,5.50
2011,10,17,05,26,5.50
2011,10,17,05,27,5.60
2011,10,17,05,28,5.60
2011,10,17,05,29,5.60
2011,10,17,05,30,5.60
2011,10,17,05,31,5.60
2011,10,17,05,32,5.60
2011,10,17,05,33,5.60
2011,10,17,05,34,5.60
2011,10,17,05,35,5.60
2011,10,17,05,36,5.60
2011,10,17,05,37,5.60
2011,10,17,05,38,5.60
2011,10,17,05,39,5.50
2011,10,17,05,40,5.50
2011,10,17,05,41,5.50
2011,10,17,05,42,5.50
2011,10,17,05,43,5.50
2011,10,17,05,44,5.50
2011,10,17,05,45,5.50
2011,10,17,05,46,5.60
2011,10,17,05,47,5.60
2011,10,17,05,48,5.60
2011,10,17,05,49,5.60
2011,10,17,05,50,5.60
2011,10,17,05,51,5.60
2011,10,17,05,52,5.60
2011,10,17,05,53,5.60
2011,10,17,05,54,5.70
2011,10,17,05,55,5.70
2011,10,17,05,56,5.70
2011,10,17,05,57,5.70
2011,10,17,05,58,5.80
2011,10,17,05,59,5.80
2011,10,17,06,00,5.80
2011,10,17,06,01,5.80
2011,10,17,06,02,5.80
2011,10,17,06,03,5.80
2011,10,17,06,04,5.70
2011,10,17,06,05,5.70
2011,10,17,06,06,5.70
2011,10,17,06,07,5.60
2011,10,17,06,08,5.50
2011,10,17,06,09,5.40
2011,10,17,06,10,5.30
2011,10,17,06,11,5.30
2011,10,17,06,12,5.30
2011,10,17,06,13,5.30
2011,10,17,06,14,5.20
2011,10,17,06,15,5.20
2011,10,17,06,16,5.20
2011,10,17,06,17,5.20
2011,10,17,06,18,5.20
2011,10,17,06,19,5.20
2011,10,17,06,20,5.20
2011,10,17,06,21,5.20
2011,10,17,06,22,5.20
2011,10,17,06,23,5.20
2011,10,17,06,24,5.20
2011,10,17,06,25,5.20
2011,10,17,06,26,5.20
2011,10,17,06,27,5.20
2011,10,17,06,28,5.20
2011,10,17,06,29,5.20
2011,10,17,06,30,5.20
2011,10,17,06,31,5.20
2011,10,17,06,32,5.20
2011,10,17,06,33,5.20
2011,10,17,06,34,5.10
2011,10,17,06,35,5.10
2011,10,17,06,36,5.10
2011,10,17,06,37,5.10
2011,10,17,06,38,5.10
2011,10,17,06,39,5.00
2011,10,17,06,40,5.00
2011,10,17,06,41,5.00
2011,10,17,06,42,5.00
2011,10,17,06,43,4.90
2011,10,17,06,44,4.90
2011,10,17,06,45,4.80
2011,10,17,06,46,4.80
2011,10,17,06,47,4.80
2011,10,17,06,48,4.80
2011,10,17,06,49,4.70
2011,10,17,06,50,4.70
2011,10,17,06,51,4.70
2011,10,17,06,52,4.70
2011,10,17,06,53,4.70
2011,10,17,06,54,4.70
2011,10,17,06,55,4.70
2011,10,17,06,56,4.80
2011,10,17,06,57,4.80
2011,10,17,06,58,4.80
2011,10,17,06,59,4.90
2011,10,17,07,00,4.90
2011,10,17,07,01,4.90
2011,10,17,07,02,4.90
2011,10,17,07,03,4.80
2011,10,17,07,04,4.80
2011,10,17,07,05,4.80
2011,10,17,07,06,4.70
2011,10,17,07,07,4.70
2011,10,17,07,08,4.70
2011,10,17,07,09,4.70
2011,10,17,07,10,4.70
2011,10,17,07,11,4.70
2011,10,17,07,12,4.70
2011,10,17,07,13,4.70
2011,10,17,07,14,4.60
2011,10,17,07,15,4.60
2011,10,17,07,16,4.60
2011,10,17,07,17,4.60
2011,10,17,07,18,4.60
2011,10,17,07,19,4.60
2011,10,17,07,20,4.60
2011,10,17,07,21,4.60
2011,10,17,07,22,4.60
2011,10,17,07,23,4.50
2011,10,17,07,24,4.50
2011,10,17,07,25,4.50
2011,10,17,07,26,4.40
2011,10,17,07,27,4.40
2011,10,17,07,28,4.40
2011,10,17,07,29,4.40
2011,10,17,07,30,4.30
2011,10,17,07,31,4.20
2011,10,17,07,32,4.20
2011,10,17,07,33,4.20
2011,10,17,07,34,4.20
2011,10,17,07,35,4.20
2011,10,17,07,36,4.20
2011,10,17,07,37,4.20
2011,10,17,07,38,4.20
2011,10,17,07,39,4.20
2011,10,17,07,40,4.20
2011,10,17,07,41,4.30
2011,10,17,07,42,4.30
2011,10,17,07,43,4.30
2011,10,17,07,44,4.40
2011,10,17,07,45,4.50
2011,10,17,07,46,4.50
2011,10,17,07,47,4.50
2011,10,17,07,48,4.60
2011,10,17,07,49,4.60
2011,10,17,07,50,4.60
2011,10,17,07,51,4.70
2011,10,17,07,52,4.70
2011,10,17,07,53,4.70
2011,10,17,07,54,4.70
2011,10,17,07,55,4.70
2011,10,17,07,56,4.70
2011,10,17,07,57,4.80
2011,10,17,07,58,4.80
2011,10,17,07,59,4.80
2011,10,17,08,00,4.70
2011,10,17,08,01,4.70
2011,10,17,08,02,4.70
2011,10,17,08,03,4.70
2011,10,17,08,04,4.70
2011,10,17,08,05,4.70
2011,10,17,08,06,4.70
2011,10,17,08,07,4.70
2011,10,17,08,08,4.70
2011,10,17,08,09,4.70
2011,10,17,08,10,4.70
2011,10,17,08,11,4.70
2011,10,17,08,12,4.70
2011,10,17,08,13,4.70
2011,10,17,08,14,4.70
2011,10,17,08,15,4.70
2011,10,17,08,16,4.70
2011,10,17,08,17,4.70
2011,10,17,08,18,4.70
2011,10,17,08,19,4.70
2011,10,17,08,20,4.80
2011,10,17,08,21,4.80
2011,10,17,08,22,4.80
2011,10,17,08,23,4.90
2011,10,17,08,24,4.90
2011,10,17,08,25,4.90
2011,10,17,08,26,5.00
2011,10,17,08,27,5.10
2011,10,17,08,28,5.10
2011,10,17,08,29,5.10
2011,10,17,08,30,5.20
2011,10,17,08,31,5.20
2011,10,17,08,32,5.20
2011,10,17,08,33,5.30
2011,10,17,08,34,5.30
2011,10,17,08,35,5.30
2011,10,17,08,36,5.40
2011,10,17,08,37,5.40
2011,10,17,08,38,5.50
2011,10,17,08,39,5.50
2011,10,17,08,40,5.50
2011,10,17,08,41,5.50
2011,10,17,08,42,5.60
2011,10,17,08,43,5.60
2011,10,17,08,44,5.60
2011,10,17,08,45,5.70
2011,10,17,08,46,5.70
2011,10,17,08,47,5.70
2011,10,17,08,48,5.80
2011,10,17,08,49,5.80
2011,10,17,08,50,5.80
2011,10,17,08,51,5.80
2011,10,17,08,52,5.90
2011,10,17,08,53,5.90
2011,10,17,08,54,5.90
2011,10,17,08,55,6.00
2011,10,17,08,56,6.00
2011,10,17,08,57,6.00
2011,10,17,08,58,6.10
2011,10,17,08,59,6.10
2011,10,17,09,00,6.20
2011,10,17,09,01,6.20
2011,10,17,09,02,6.20
2011,10,17,09,03,6.30
2011,10,17,09,04,6.30
2011,10,17,09,05,6.30
2011,10,17,09,06,6.40
2011,10,17,09,07,6.40
2011,10,17,09,08,6.50
2011,10,17,09,09,6.50
2011,10,17,09,10,6.60
2011,10,17,09,11,6.60
2011,10,17,09,12,6.60
2011,10,17,09,13,6.60
2011,10,17,09,14,6.70
2011,10,17,09,15,6.70
2011,10,17,09,16,6.80
2011,10,17,09,17,6.80
2011,10,17,09,18,6.90
2011,10,17,09,19,6.90
2011,10,17,09,20,7.00
2011,10,17,09,21,7.10
2011,10,17,09,22,7.20
2011,10,17,09,23,7.20
2011,10,17,09,24,7.30
2011,10,17,09,25,7.40
2011,10,17,09,26,7.50
2011,10,17,09,27,7.60
2011,10,17,09,28,7.60
2011,10,17,09,29,7.70
2011,10,17,09,30,7.70
2011,10,17,09,31,7.80
2011,10,17,09,32,7.80
2011,10,17,09,33,7.90
2011,10,17,09,34,7.90
2011,10,17,09,35,8.00
2011,10,17,09,36,8.10
2011,10,17,09,37,8.10
2011,10,17,09,38,8.20
2011,10,17,09,39,8.20
2011,10,17,09,40,8.20
2011,10,17,09,41,8.20
2011,10,17,09,42,8.30
2011,10,17,09,43,8.30
2011,10,17,09,44,8.30
2011,10,17,09,45,8.40
2011,10,17,09,46,8.40
2011,10,17,09,47,8.50
2011,10,17,09,48,8.50
2011,10,17,09,49,8.60
2011,10,17,09,50,8.60
2011,10,17,09,51,8.70
2011,10,17,09,52,8.70
2011,10,17,09,53,8.70
2011,10,17,09,54,8.80
2011,10,17,09,55,8.80
2011,10,17,09,56,8.80
2011,10,17,09,57,8.80
2011,10,17,09,58,8.80
2011,10,17,09,59,8.90
2011,10,17,10,00,8.90
2011,10,17,10,01,8.90
2011,10,17,10,02,9.00
2011,10,17,10,03,9.10
2011,10,17,10,04,9.10
2011,10,17,10,05,9.20
2011,10,17,10,06,9.20
2011,10,17,10,07,9.20
2011,10,17,10,08,9.20
2011,10,17,10,09,9.30
2011,10,17,10,10,9.30
2011,10,17,10,11,9.30
2011,10,17,10,12,9.40
2011,10,17,10,13,9.40
2011,10,17,10,14,9.50
2011,10,17,10,15,9.50
2011,10,17,10,16,9.60
2011,10,17,10,17,9.60
2011,10,17,10,18,9.70
2011,10,17,10,19,9.70
2011,10,17,10,20,9.70
2011,10,17,10,21,9.70
2011,10,17,10,22,9.80
2011,10,17,10,23,9.80
2011,10,17,10,24,9.80
2011,10,17,10,25,9.90
2011,10,17,10,26,9.90
2011,10,17,10,27,9.90
2011,10,17,10,28,10.00
2011,10,17,10,29,10.00
2011,10,17,10,30,10.00
2011,10,17,10,31,10.10
2011,10,17,10,32,10.10
2011,10,17,10,33,10.20
2011,10,17,10,34,10.20
2011,10,17,10,35,10.30
2011,10,17,10,36,10.30
2011,10,17,10,37,10.40
2011,10,17,10,38,10.40
2011,10,17,10,39,10.50
2011,10,17,10,40,10.50
2011,10,17,10,41,10.60
2011,10,17,10,42,10.60
2011,10,17,10,43,10.70
2011,10,17,10,44,10.70
2011,10,17,10,45,10.80
2011,10,17,10,46,10.80
2011,10,17,10,47,10.90
2011,10,17,10,48,10.90
2011,10,17,10,49,10.90
2011,10,17,10,50,11.00
2011,10,17,10,51,11.10
2011,10,17,10,52,11.10
2011,10,17,10,53,11.20
2011,10,17,10,54,11.20
2011,10,17,10,55,11.20
2011,10,17,10,56,11.30
2011,10,17,10,57,11.30
2011,10,17,10,58,11.20
2011,10,17,10,59,11.20
2011,10,17,11,00,11.20
2011,10,17,11,01,11.30
2011,10,17,11,02,11.30
2011,10,17,11,03,11.30
2011,10,17,11,04,11.30
2011,10,17,11,05,11.30
2011,10,17,11,06,11.30
2011,10,17,11,07,11.30
2011,10,17,11,08,11.30
2011,10,17,11,09,11.30
2011,10,17,11,10,11.20
2011,10,17,11,11,11.30
2011,10,17,11,12,11.30
2011,10,17,11,13,11.30
2011,10,17,11,14,11.40
2011,10,17,11,15,11.40
2011,10,17,11,16,11.40
2011,10,17,11,17,11.40
2011,10,17,11,18,11.40
2011,10,17,11,19,11.40
2011,10,17,11,20,11.30
2011,10,17,11,21,11.30
2011,10,17,11,22,11.30
2011,10,17,11,23,11.30
2011,10,17,11,24,11.30
2011,10,17,11,25,11.40
2011,10,17,11,26,11.40
2011,10,17,11,27,11.40
2011,10,17,11,28,11.40
2011,10,17,11,29,11.50
2011,10,17,11,30,11.50
2011,10,17,11,31,11.60
2011,10,17,11,32,11.60
2011,10,17,11,33,11.60
2011,10,17,11,34,11.70
2011,10,17,11,35,11.70
2011,10,17,11,36,11.70
2011,10,17,11,37,11.60
2011,10,17,11,38,11.70
2011,10,17,11,39,11.70
2011,10,17,11,40,11.70
2011,10,17,11,41,11.70
2011,10,17,11,42,11.70
2011,10,17,11,43,11.70
2011,10,17,11,44,11.70
2011,10,17,11,45,11.70
2011,10,17,11,46,11.70
2011,10,17,11,47,11.80
2011,10,17,11,48,11.80
2011,10,17,11,49,11.90
2011,10,17,11,50,11.80
2011,10,17,11,51,11.80
2011,10,17,11,52,11.80
2011,10,17,11,53,11.80
2011,10,17,11,54,11.80
2011,10,17,11,55,11.80
2011,10,17,11,56,11.80
2011,10,17,11,57,11.80
2011,10,17,11,58,11.80
2011,10,17,11,59,11.80
2011,10,17,12,00,11.80
2011,10,17,12,01,11.80
2011,10,17,12,02,11.80
2011,10,17,12,03,11.80
2011,10,17,12,04,11.90
2011,10,17,12,05,11.90
2011,10,17,12,06,11.90
2011,10,17,12,07,12.00
2011,10,17,12,08,12.00
2011,10,17,12,09,12.10
2011,10,17,12,10,12.10
2011,10,17,12,11,12.10
2011,10,17,12,12,12.00
2011,10,17,12,13,12.00
2011,10,17,12,14,12.00
2011,10,17,12,15,12.00
2011,10,17,12,16,12.00
2011,10,17,12,17,12.00
2011,10,17,12,18,12.00
2011,10,17,12,19,12.00
2011,10,17,12,20,11.90
2011,10,17,12,21,12.00
2011,10,17,12,22,12.00
2011,10,17,12,23,12.10
2011,10,17,12,24,12.10
2011,10,17,12,25,12.10
2011,10,17,12,26,12.10
2011,10,17,12,27,12.20
2011,10,17,12,28,12.20
2011,10,17,12,29,12.30
2011,10,17,12,30,12.30
2011,10,17,12,31,12.40
2011,10,17,12,32,12.50
2011,10,17,12,33,12.50
2011,10,17,12,34,12.60
2011,10,17,12,35,12.60
2011,10,17,12,36,12.60
2011,10,17,12,37,12.70
2011,10,17,12,38,12.70
2011,10,17,12,39,12.60
2011,10,17,12,40,12.60
2011,10,17,12,41,12.50
2011,10,17,12,42,12.50
2011,10,17,12,43,12.40
2011,10,17,12,44,12.50
2011,10,17,12,45,12.50
2011,10,17,12,46,12.50
2011,10,17,12,47,12.50
2011,10,17,12,48,12.50
2011,10,17,12,49,12.40
2011,10,17,12,50,12.40
2011,10,17,12,51,12.40
2011,10,17,12,52,12.40
2011,10,17,12,53,12.40
2011,10,17,12,54,12.40
2011,10,17,12,55,12.50
2011,10,17,12,56,12.50
2011,10,17,12,57,12.50
2011,10,17,12,58,12.60
2011,10,17,12,59,12.60
2011,10,17,13,00,12.70
2011,10,17,13,01,12.70
2011,10,17,13,02,12.80
2011,10,17,13,03,12.80
2011,10,17,13,04,12.80
2011,10,17,13,05,12.80
2011,10,17,13,06,12.80
2011,10,17,13,07,12.70
2011,10,17,13,08,12.70
2011,10,17,13,09,12.70
2011,10,17,13,10,12.70
2011,10,17,13,11,12.70
2011,10,17,13,12,12.60
2011,10,17,13,13,12.50
2011,10,17,13,14,12.50
2011,10,17,13,15,12.50
2011,10,17,13,16,12.40
2011,10,17,13,17,12.40
2011,10,17,13,18,12.30
2011,10,17,13,19,12.20
2011,10,17,13,20,12.20
2011,10,17,13,21,12.20
2011,10,17,13,22,12.10
2011,10,17,13,23,12.10
2011,10,17,13,24,12.10
2011,10,17,13,25,12.20
2011,10,17,13,26,12.20
2011,10,17,13,27,12.20
2011,10,17,13,28,12.30
2011,10,17,13,29,12.40
2011,10,17,13,30,12.40
2011,10,17,13,31,12.50
2011,10,17,13,32,12.50
2011,10,17,13,33,12.50
2011,10,17,13,34,12.60
2011,10,17,13,35,12.60
2011,10,17,13,36,12.60
2011,10,17,13,37,12.60
2011,10,17,13,38,12.60
2011,10,17,13,39,12.70
2011,10,17,13,40,12.70
2011,10,17,13,41,12.70
2011,10,17,13,42,12.70
2011,10,17,13,43,12.80
2011,10,17,13,44,12.80
2011,10,17,13,45,12.90
2011,10,17,13,46,12.90
2011,10,17,13,47,12.90
2011,10,17,13,48,12.90
2011,10,17,13,49,12.90
2011,10,17,13,50,12.90
2011,10,17,13,51,13.00
2011,10,17,13,52,13.00
2011,10,17,13,53,13.10
2011,10,17,13,54,13.10
2011,10,17,13,55,13.00
2011,10,17,13,56,12.90
2011,10,17,13,57,12.90
2011,10,17,13,58,13.00
2011,10,17,13,59,13.00
2011,10,17,14,00,13.00
2011,10,17,14,01,13.10
2011,10,17,14,02,13.10
2011,10,17,14,03,13.10
2011,10,17,14,04,13.10
2011,10,17,14,05,13.10
2011,10,17,14,06,13.00
2011,10,17,14,07,13.10
2011,10,17,14,08,13.10
2011,10,17,14,09,13.20
2011,10,17,14,10,13.20
2011,10,17,14,11,13.30
2011,10,17,14,12,13.30
2011,10,17,14,13,13.40
2011,10,17,14,14,13.40
2011,10,17,14,15,13.40
2011,10,17,14,16,13.40
2011,10,17,14,17,13.50
2011,10,17,14,18,13.50
2011,10,17,14,19,13.50
2011,10,17,14,20,13.60
2011,10,17,14,21,13.60
2011,10,17,14,22,13.70
2011,10,17,14,23,13.80
2011,10,17,14,24,13.80
2011,10,17,14,25,13.90
2011,10,17,14,26,13.80
2011,10,17,14,27,13.70
2011,10,17,14,28,13.70
2011,10,17,14,29,13.70
2011,10,17,14,30,13.70
2011,10,17,14,31,13.70
2011,10,17,14,32,13.70
2011,10,17,14,33,13.70
2011,10,17,14,34,13.70
2011,10,17,14,35,13.80
2011,10,17,14,36,13.80
2011,10,17,14,37,13.80
2011,10,17,14,38,13.80
2011,10,17,14,39,13.80
2011,10,17,14,40,13.70
2011,10,17,14,41,13.70
2011,10,17,14,42,13.60
2011,10,17,14,43,13.60
2011,10,17,14,44,13.50
2011,10,17,14,45,13.50
2011,10,17,14,46,13.50
2011,10,17,14,47,13.40
2011,10,17,14,48,13.40
2011,10,17,14,49,13.40
2011,10,17,14,50,13.40
2011,10,17,14,51,13.40
2011,10,17,14,52,13.30
2011,10,17,14,53,13.30
2011,10,17,14,54,13.30
2011,10,17,14,55,13.30
2011,10,17,14,56,13.30
2011,10,17,14,57,13.30
2011,10,17,14,58,13.30
2011,10,17,14,59,13.30
2011,10,17,15,00,13.30
2011,10,17,15,01,13.30
2011,10,17,15,02,13.40
2011,10,17,15,03,13.40
2011,10,17,15,04,13.40
2011,10,17,15,05,13.40
2011,10,17,15,06,13.40
2011,10,17,15,07,13.50
2011,10,17,15,08,13.50
2011,10,17,15,09,13.50
2011,10,17,15,10,13.60
2011,10,17,15,11,13.60
2011,10,17,15,12,13.70
2011,10,17,15,13,13.70
2011,10,17,15,14,13.80
2011,10,17,15,15,13.90
2011,10,17,15,16,14.00
2011,10,17,15,17,14.00
2011,10,17,15,18,14.10
2011,10,17,15,19,14.10
2011,10,17,15,20,14.10
2011,10,17,15,21,14.10
2011,10,17,15,22,14.10
2011,10,17,15,23,14.00
2011,10,17,15,24,14.10
2011,10,17,15,25,14.00
2011,10,17,15,26,13.90
2011,10,17,15,27,13.90
2011,10,17,15,28,13.90
2011,10,17,15,29,13.90
2011,10,17,15,30,13.90
2011,10,17,15,31,14.00
2011,10,17,15,32,14.00
2011,10,17,15,33,13.90
2011,10,17,15,34,14.00
2011,10,17,15,35,14.00
2011,10,17,15,36,14.00
2011,10,17,15,37,14.00
2011,10,17,15,38,14.10
2011,10,17,15,39,14.10
2011,10,17,15,40,14.00
2011,10,17,15,41,14.00
2011,10,17,15,42,14.00
2011,10,17,15,43,14.00
2011,10,17,15,44,14.00
2011,10,17,15,45,14.00
2011,10,17,15,46,14.00
2011,10,17,15,47,14.00
2011,10,17,15,48,14.00
2011,10,17,15,49,14.00
2011,10,17,15,50,13.90
2011,10,17,15,51,13.90
2011,10,17,15,52,13.90
2011,10,17,15,53,13.90
2011,10,17,15,54,14.00
2011,10,17,15,55,14.00
2011,10,17,15,56,14.00
2011,10,17,15,57,13.90
2011,10,17,15,58,13.90
2011,10,17,15,59,13.90
2011,10,17,16,00,13.90
2011,10,17,16,01,13.90
2011,10,17,16,02,13.80
2011,10,17,16,03,13.70
2011,10,17,16,04,13.70
2011,10,17,16,05,13.60
2011,10,17,16,06,13.60
2011,10,17,16,07,13.60
2011,10,17,16,08,13.60
2011,10,17,16,09,13.60
2011,10,17,16,10,13.60
2011,10,17,16,11,13.50
2011,10,17,16,12,13.50
2011,10,17,16,13,13.40
2011,10,17,16,14,13.40
2011,10,17,16,15,13.40
2011,10,17,16,16,13.40
2011,10,17,16,17,13.40
2011,10,17,16,18,13.30
2011,10,17,16,19,13.30
2011,10,17,16,20,13.30
2011,10,17,16,21,13.30
2011,10,17,16,22,13.30
2011,10,17,16,23,13.30
2011,10,17,16,24,13.30
2011,10,17,16,25,13.30
2011,10,17,16,26,13.40
2011,10,17,16,27,13.40
2011,10,17,16,28,13.40
2011,10,17,16,29,13.30
2011,10,17,16,30,13.30
2011,10,17,16,31,13.30
2011,10,17,16,32,13.30
2011,10,17,16,33,13.30
2011,10,17,16,34,13.30
2011,10,17,16,35,13.30
2011,10,17,16,36,13.30
2011,10,17,16,37,13.30
2011,10,17,16,38,13.30
2011,10,17,16,39,13.30
2011,10,17,16,40,13.30
2011,10,17,16,41,13.30
2011,10,17,16,42,13.30
2011,10,17,16,43,13.30
2011,10,17,16,44,13.30
2011,10,17,16,45,13.30
2011,10,17,16,46,13.20
2011,10,17,16,47,13.20
2011,10,17,16,48,13.20
2011,10,17,16,49,13.20
2011,10,17,16,50,13.20
2011,10,17,16,51,13.20
2011,10,17,16,52,13.20
2011,10,17,16,53,13.30
2011,10,17,16,54,13.30
2011,10,17,16,55,13.30
2011,10,17,16,56,13.20
2011,10,17,16,57,13.20
2011,10,17,16,58,13.20
2011,10,17,16,59,13.20
2011,10,17,17,00,13.20
2011,10,17,17,01,13.10
2011,10,17,17,02,13.10
2011,10,17,17,03,13.10
2011,10,17,17,04,13.10
2011,10,17,17,05,13.10
2011,10,17,17,06,13.10
2011,10,17,17,07,13.10
2011,10,17,17,08,13.10
2011,10,17,17,09,13.10
2011,10,17,17,10,13.10
2011,10,17,17,11,13.10
2011,10,17,17,12,13.10
2011,10,17,17,13,13.20
2011,10,17,17,14,13.20
2011,10,17,17,15,13.20
2011,10,17,17,16,13.20
2011,10,17,17,17,13.20
2011,10,17,17,18,13.20
2011,10,17,17,19,13.20
2011,10,17,17,20,13.20
2011,10,17,17,21,13.20
2011,10,17,17,22,13.20
2011,10,17,17,23,13.20
2011,10,17,17,24,13.20
2011,10,17,17,25,13.20
2011,10,17,17,26,13.20
2011,10,17,17,27,13.20
2011,10,17,17,28,13.20
2011,10,17,17,29,13.20
2011,10,17,17,30,13.20
2011,10,17,17,31,13.20
2011,10,17,17,32,13.20
2011,10,17,17,33,13.10
2011,10,17,17,34,13.10
2011,10,17,17,35,13.10
2011,10,17,17,36,13.10
2011,10,17,17,37,13.10
2011,10,17,17,38,13.10
2011,10,17,17,39,13.10
2011,10,17,17,40,13.00
2011,10,17,17,41,13.00
2011,10,17,17,42,13.00
2011,10,17,17,43,12.90
2011,10,17,17,44,12.90
2011,10,17,17,45,12.90
2011,10,17,17,46,12.90